Weather Roundup
Issued by NWS Springfield, MO

Home | Current Version | Previous Version | Text Only | Print | Product List | Glossary On
Versions: 1 2 3 4 5 6 7 8 9 10 11 12 13 14 15 16 17 18 19 20 21 22 23 24 25 26 27 28 29 30 31 32 33 34 35 36 37 38 39 40 41 42 43 44 45 46 47 48 49 50
000
NZUS99 KSGF 031307
HRRSGF

HOURLY WEATHER
NATIONAL WEATHER SERVICE SPRINGFIELD MO
800 AM CDT FRI JUL 03 2015

......SGF CWA......

CITY           SKY/WX    TMP DP  RH WIND       PRES   REMARKS
SPRINGFIELD    CLOUDY    72  70  93 S6        29.91S FOG
JOPLIN         CLOUDY    71  69  93 SW7       29.92S FOG
WEST PLAINS    PTSUNNY   71  67  87 N5        29.93R FOG
ROLLA          SUNNY     69  63  81 N3        29.92S
OSAGE BEACH    PTSUNNY   68  63  83 NE6       29.92F
BRANSON        MOSUNNY   72  68  88 W5        29.94S

......SURROUNDING SGF CWA......

CITY           SKY/WX    TMP DP  RH WIND       PRES   REMARKS
CHANUTE        CLOUDY    71  70  96 E3        29.91S FOG
PARSONS        PTSUNNY   72  71  97 CALM      29.92S
COFFEYVILLE    SUNNY     72  69  90 CALM      29.91R
EMPORIA        PTSUNNY   68  67  96 NW3       29.92F
GROVE OK       CLOUDY    72  72 100 CALM      29.93S
ROGERS AR      CLOUDY    70  68  93 CALM      29.94S
SILOAM SPRINGS MOSUNNY   72  66  83 SW7         N/A
HARRISON AR    CLOUDY    70  68  93 CALM      29.95R
NEAR YELLVILLE MOSUNNY   73  66  78 SW3       29.90R

......KANSAS AND MISSOURI......

CITY           SKY/WX    TMP DP  RH WIND       PRES   REMARKS
KANSAS CTY INT CLOUDY    65  62  90 NE9       29.95S
DOWNTOWN KC    CLOUDY    68  63  84 NE8       29.94S
COLUMBIA       CLOUDY    67  61  81 CALM      29.94S
SEDALIA        MOSUNNY   70  63  78 NE6       29.94S
ST JOSEPH      CLOUDY    66  59  78 NE5       29.97R
ST LOUIS       PTSUNNY   70  62  76 N3        29.92R
SPIRIT OF STL  MOSUNNY   69  64  84 NE5       29.91S
KIRKSVILLE     SUNNY     65  60  84 NE6       29.98S
WICHITA        SUNNY     72  66  81 N12       29.94R
TOPEKA         LGT RAIN  67  65  93 NE6       29.95R
OLATHE         LGT RAIN  64  64 100 E6        29.94R FOG

......TENNESSEE......

CITY           SKY/WX    TMP DP  RH WIND       PRES   REMARKS
MEMPHIS        TSTM      72  70  93 SW9G24    29.94R VSB 1
NASHVILLE      PTSUNNY   74  70  87 SW5       29.88S

......ARKANSAS.......

CITY           SKY/WX    TMP DP  RH WIND       PRES   REMARKS
FAYETTEVILLE   MOSUNNY   70  69  97 S5        29.92F
FT SMITH       LGT RAIN  70  68  93 E6        29.92R FOG
LITTLE ROCK    CLOUDY    76  71  85 SW12      29.93R

......OKLAHOMA.......

CITY           SKY/WX    TMP DP  RH WIND       PRES   REMARKS
TULSA          MOSUNNY   74  70  87 W8        29.91R
PONCA CITY     SUNNY     73  69  87 VRB3      29.93S
MCALESTER      PTSUNNY   76  72  87 SW10      29.94S
OKLAHOMA CITY  MOSUNNY   72  70  93 SW5       29.94R

......IOWA............

CITY           SKY/WX    TMP DP  RH WIND       PRES   REMARKS
DES MOINES     SUNNY     64  55  72 NE3       29.99S
QUAD CITIES    PTSUNNY   63  55  75 NE7       29.98R

......ILLINOIS........

CITY           SKY/WX    TMP DP  RH WIND       PRES   REMARKS
QUINCY         MOSUNNY   64  60  87 NE8       29.95R
CHICAGO        CLOUDY    61  55  81 CALM      29.98S



USA.gov is the U.S. government's official web portal to all federal, state and local government web resources and services.